Location: Bratislava
(48.1500°N, 17.1170°E)
Time: 04:33:47
(UTC+01:00)

N. Korean satellite - Visible Passes

Search period start: 16 December 2017 00:00
Search period end: 26 December 2017 00:00
Orbit: 461 x 513 km, 97.2° (Epoch: 15 December)

Date Brightness Start Highest point End Pass type
(mag) Time Alt. Az. Time Alt. Az. Time Alt. Az.
16 Dec 8.4 06:14:43 10° NNE 06:18:12 36° E 06:21:36 10° SSE visible
16 Dec 7.6 16:54:30 10° SE 16:57:38 26° ENE 17:00:48 10° N visible
16 Dec 8.8 18:27:51 10° SSW 18:31:05 27° W 18:34:21 10° NW visible
17 Dec 9.5 05:51:40 10° NE 05:54:29 20° E 05:57:15 10° SE visible
17 Dec 7.6 18:03:46 10° S 18:07:24 50° W 18:11:06 10° NNW visible
18 Dec 10.1 05:29:26 10° ENE 05:30:40 11° E 05:31:54 10° ESE visible
18 Dec 6.6 07:00:56 10° N 07:04:36 62° WNW 07:08:12 10° SSW visible
18 Dec 6.6 17:40:04 10° SSE 17:43:49 85° ENE 17:47:36 10° NNW visible
19 Dec 7.0 06:37:21 10° NNE 06:41:03 69° ESE 06:44:39 10° S visible
19 Dec 6.9 17:16:42 10° SE 17:20:17 45° ENE 17:23:55 10° N visible
19 Dec 9.7 18:51:40 10° SW 18:54:03 16° W 18:56:26 10° NW visible
20 Dec 8.4 06:13:58 10° NNE 06:17:24 35° E 06:20:45 10° SSE visible
20 Dec 7.7 16:53:43 10° SE 16:56:51 26° ENE 17:00:00 10° N visible
20 Dec 8.8 18:27:01 10° SSW 18:30:17 28° W 18:33:34 10° NW visible
21 Dec 9.5 05:50:54 10° NE 05:53:40 20° E 05:56:22 10° SE visible
21 Dec 7.5 18:02:56 10° S 18:06:36 51° W 18:10:18 10° NNW visible
22 Dec 10.1 05:28:46 10° ENE 05:29:50 11° E 05:30:54 10° ESE visible
22 Dec 6.6 07:00:08 10° N 07:03:48 62° WNW 07:07:20 10° SSW visible
22 Dec 6.6 17:39:15 10° SSE 17:42:59 84° E 17:46:47 10° N visible
23 Dec 7.0 06:36:33 10° NNE 06:40:13 68° ESE 06:43:47 10° S visible
23 Dec 6.9 17:15:53 10° SE 17:19:28 44° ENE 17:23:05 10° N visible
23 Dec 9.7 18:50:48 10° SW 18:53:12 16° W 18:55:37 10° NW visible
24 Dec 8.4 06:13:10 10° NNE 06:16:32 35° E 06:19:51 10° SSE visible
24 Dec 7.7 16:52:53 10° ESE 16:56:01 25° ENE 16:59:09 10° N visible
24 Dec 8.8 18:26:10 10° SSW 18:29:27 28° W 18:32:44 10° NW visible
25 Dec 9.5 05:50:07 10° NE 05:52:48 19° E 05:55:26 10° SE visible
25 Dec 7.5 18:02:05 10° S 18:05:45 52° W 18:09:26 10° NNW visible
